LA3SP-1 Weather Reports


time (UTC)temp
C
wind
direction
speed
KPH
gust
KPH
rain 1hr
cm
rain 24hr
cm
rain mn
cm
humidity
%
barometer
mb
20260508004939 -2 315 0.0 0.0 0.00 0.00 0.00 65 1013.8
20260508003938 -2 315 0.0 0.0 0.00 0.00 0.00 64 1013.9
20260508002936 -2 315 0.0 0.0 0.00 0.00 0.00 63 1014.1
20260508001935 -2 315 0.0 0.0 0.00 0.00 0.00 63 1013.9
20260508000933 -2 315 0.0 0.0 0.00 0.00 0.00 62 1014.1
20260507235932 -2 315 0.0 0.0 0.00 0.00 0.00 62 1014.0
20260507231927 -1 315 0.0 0.0 0.00 0.00 0.00 60 1013.7
20260507230925 -1 315 0.0 0.0 0.00 0.00 0.00 59 1013.6
20260507225924 -1 315 1.6 0.0 0.00 0.00 0.00 58 1013.6
20260507223921 -1 337 0.0 0.0 0.00 0.00 0.00 59 1013.6
20260507221918 -1 337 0.0 0.0 0.00 0.00 0.00 61 1013.6
20260507215915 -1 337 0.0 0.0 0.00 0.00 0.00 59 1013.5
20260507212912 0 337 0.0 0.0 0.00 0.00 0.00 58 1013.3
20260507211910 0 337 0.0 0.0 0.00 0.00 0.00 57 1013.3
20260507210909 0 337 3.2 0.0 0.00 0.00 0.00 57 1013.4
20260507204906 -1 337 3.2 0.0 0.00 0.00 0.00 57 1013.2
20260507201902 0 337 1.6 0.0 0.00 0.00 0.00 54 1013.3
20260507200900 0 337 4.8 0.0 0.00 0.00 0.00 52 1013.3
20260507194857 0 315 0.0 0.0 0.00 0.00 0.00 50 1013.1
20260507193856 0 315 4.8 0.0 0.00 0.00 0.00 49 1013.0
20260507191854 0 292 0.0 0.0 0.00 0.00 0.00 47 1012.8
20260507190852 1 292 3.2 0.0 0.00 0.00 0.00 46 1012.5
20260507185851 1 292 0.0 0.0 0.00 0.00 0.00 45 1012.5
20260507184849 2 292 1.6 0.0 0.00 0.00 0.00 44 1012.3
20260507183848 2 292 0.0 0.0 0.00 0.00 0.00 44 1012.4
20260507182846 2 292 0.0 0.0 0.00 0.00 0.00 42 1012.4
20260507181845 3 292 3.2 0.0 0.00 0.00 0.00 41 1012.3
20260507175842 4 157 0.0 0.0 0.00 0.00 0.00 40 1012.4
20260507174841 5 157 3.2 0.0 0.00 0.00 0.00 40 1012.5
20260507173839 5 157 0.0 0.0 0.00 0.00 0.00 41 1012.5
20260507172838 5 157 0.0 0.0 0.00 0.00 0.00 41 1012.4
20260507171836 5 157 4.8 0.0 0.00 0.00 0.00 40 1012.2
20260507164833 5 157 6.4 0.0 0.00 0.00 0.00 42 1012.2
20260507163831 6 157 6.4 0.0 0.00 0.00 0.00 42 1012.2
20260507162830 6 157 8.0 0.0 0.00 0.00 0.00 41 1012.1
20260507160827 6 180 1.6 0.0 0.00 0.00 0.00 41 1012.1
20260507153823 6 180 1.6 0.0 0.00 0.00 0.00 40 1012.1
20260507152821 6 157 1.6 0.0 0.00 0.00 0.00 39 1012.2
20260507151820 6 157 4.8 0.0 0.00 0.00 0.00 39 1012.1
20260507150818 6 247 1.6 0.0 0.00 0.00 0.00 38 1012.1
20260507145817 7 247 0.0 0.0 0.00 0.00 0.00 39 1011.9
20260507144816 7 247 0.0 0.0 0.00 0.00 0.00 39 1011.9
20260507142813 7 225 0.0 0.0 0.00 0.00 0.00 39 1011.9
20260507135809 7 135 1.6 0.0 0.00 0.00 0.00 42 1011.7
20260507133806 6 315 9.7 0.0 0.00 0.00 0.00 40 1012.0
20260507132805 6 292 3.2 0.0 0.00 0.00 0.00 40 1012.0
20260507130802 8 292 0.0 0.0 0.00 0.00 0.00 39 1012.0
20260507125801 9 225 1.6 0.0 0.00 0.00 0.00 42 1011.9
20260507124759 8 247 0.0 0.0 0.00 0.00 0.00 41 1011.8
20260507123758 7 247 1.6 0.0 0.00 0.00 0.00 41 1011.8
20260507121755 8 270 6.4 0.0 0.00 0.00 0.00 41 1011.9
20260507120754 8 247 0.0 0.0 0.00 0.00 0.00 44 1012.0
20260507114751 7 270 3.2 0.0 0.00 0.00 0.00 45 1012.1
20260507113749 6 270 0.0 0.0 0.00 0.00 0.00 45 1012.0
20260507111747 7 270 3.2 0.0 0.00 0.00 0.00 45 1011.9
20260507110746 6 247 1.6 0.0 0.00 0.00 0.00 45 1011.9
20260507105744 6 270 0.0 0.0 0.00 0.00 0.00 45 1011.8
20260507104743 5 315 0.0 0.0 0.00 0.00 0.00 46 1011.7
20260507103741 5 270 6.4 0.0 0.00 0.00 0.00 46 1011.6
20260507102740 6 292 9.7 0.0 0.00 0.00 0.00 46 1011.5
20260507100737 5 270 1.6 0.0 0.00 0.00 0.00 48 1011.5
20260507095736 5 315 0.0 0.0 0.00 0.00 0.00 48 1011.5
20260507094734 5 270 4.8 0.0 0.00 0.00 0.00 48 1011.3
20260507093733 5 270 0.0 0.0 0.00 0.00 0.00 49 1011.3
20260507091731 5 247 0.0 0.0 0.00 0.00 0.00 51 1011.2
20260507085728 5 247 0.0 0.0 0.00 0.00 0.00 52 1011.1
20260507083725 3 247 0.0 0.0 0.00 0.00 0.00 55 1011.1
20260507082723 3 315 3.2 0.0 0.00 0.00 0.00 55 1010.8
20260507081722 3 292 6.4 0.0 0.00 0.00 0.00 55 1010.8
20260507075719 1 292 4.8 0.0 0.00 0.00 0.00 59 1010.6
20260507074718 0 292 0.0 0.0 0.00 0.00 0.00 60 1010.6
20260507073716 0 292 0.0 0.0 0.00 0.00 0.00 62 1010.5
20260507072715 0 247 1.6 0.0 0.00 0.00 0.00 63 1010.6
20260507071713 0 247 0.0 0.0 0.00 0.00 0.00 65 1010.6
20260507065711 -1 292 3.2 0.0 0.00 0.00 0.00 69 1010.3
20260507064710 -2 292 0.0 0.0 0.00 0.00 0.00 69 1010.4
20260507062707 -3 292 0.0 0.0 0.00 0.00 0.00 71 1010.1
20260507061705 -3 292 0.0 0.0 0.00 0.00 0.00 71 1010.0
20260507054701 -5 292 0.0 0.0 0.00 0.00 0.00 73 1010.0
20260507053723 -5 292 0.0 0.0 0.00 0.00 0.00 74 1010.0
20260507053700 -5 292 0.0 0.0 0.00 0.00 0.00 74 1010.0
20260507052700 -5 292 0.0 0.0 0.00 0.00 0.00 74 1010.0
20260507041649 -6 292 0.0 0.0 0.00 0.00 0.00 73 1009.5
20260507033643 -6 292 0.0 0.0 0.00 0.00 0.00 72 1009.5
20260507032642 -5 292 0.0 0.0 0.00 0.00 0.00 71 1009.4
20260507030639 -5 292 3.2 0.0 0.00 0.00 0.00 72 1009.3
20260507025638 -5 270 4.8 0.0 0.00 0.00 0.00 72 1009.2
20260507023635 -6 292 3.2 0.0 0.00 0.00 0.00 74 1009.1
20260507022634 -6 292 1.6 0.0 0.00 0.00 0.00 73 1009.2
20260507015629 -6 315 4.8 0.0 0.00 0.00 0.00 74 1009.0
20260507014628 -6 292 3.2 0.0 0.00 0.00 0.00 73 1009.1
20260507012625 -5 292 1.6 0.0 0.00 0.00 0.00 72 1009.0
20260507011624 -5 292 0.0 0.0 0.00 0.00 0.00 71 1009.0